• In United Kingdom
  • List of Countries
  • For 7 days
  • Water Temperature
  • Satellite Maps
  • Weather Map
  • Weather Widgets
  • user-avatar
    Login

    Hourly Weather Durres

    Today, 17 July, Tuesday

    Time Temperature Precipitation Wind Pressure Humidity
    00:00 +25°C° 0 mm 3 mps 757 mmHg 59%
    01:00 +25°C° 0 mm 4 mps 757 mmHg 59%
    02:00 +25°C° 0.2 mm 4 mps 756 mmHg 60%
    03:00 +23°C° 0.2 mm 4 mps 756 mmHg 62%
    04:00 +23°C° 0.2 mm 4 mps 756 mmHg 64%
    05:00 +25°C° 0.3 mm 4 mps 756 mmHg 63%
    06:00 +27°C° 0.3 mm 4 mps 756 mmHg 62%
    07:00 +29°C° 0 mm 4 mps 755 mmHg 62%
    08:00 +30°C° 0.3 mm 5 mps 755 mmHg 57%
    09:00 +33°C° 0.3 mm 5 mps 755 mmHg 52%
    10:00 +34°C° 0.3 mm 5 mps 754 mmHg 47%
    11:00 +34°C° 0.9 mm 5 mps 754 mmHg 49%
    12:00 +34°C° 0.9 mm 5 mps 754 mmHg 51%
    13:00 +34°C° 0.9 mm 6 mps 754 mmHg 53%
    14:00 +33°C° 0.4 mm 6 mps 754 mmHg 56%
    15:00 +32°C° 0.4 mm 5 mps 754 mmHg 59%
    16:00 +30°C° 0.4 mm 5 mps 754 mmHg 61%
    17:00 +29°C° 0.2 mm 6 mps 754 mmHg 67%
    18:00 +27°C° 0.2 mm 6 mps 755 mmHg 73%
    19:00 +26°C° 0.2 mm 6 mps 755 mmHg 80%
    20:00 +24°C° 0 mm 6 mps 755 mmHg 83%
    21:00 +23°C° 0 mm 5 mps 756 mmHg 86%
    22:00 +22°C° 0 mm 5 mps 756 mmHg 89%
    23:00 +22°C° 0.4 mm 5 mps 756 mmHg 90%

    Tomorrow, 18 July, Wednesday

    Time Temperature Precipitation Wind Pressure Humidity
    00:00 +22°C° 0.4 mm 4 mps 756 mmHg 90%
    01:00 +21°C° 0.4 mm 4 mps 756 mmHg 91%
    02:00 +21°C° 0.2 mm 4 mps 756 mmHg 90%
    03:00 +21°C° 0.2 mm 3 mps 756 mmHg 89%
    04:00 +21°C° 0.2 mm 3 mps 756 mmHg 88%
    05:00 +22°C° 0 mm 3 mps 756 mmHg 81%
    06:00 +25°C° 0 mm 2 mps 756 mmHg 74%
    07:00 +26°C° 0 mm 2 mps 756 mmHg 67%
    08:00 +28°C° 0 mm 2 mps 757 mmHg 60%
    09:00 +29°C° 0 mm 3 mps 757 mmHg 53%
    10:00 +31°C° 0 mm 3 mps 757 mmHg 46%
    11:00 +33°C° 0 mm 4 mps 757 mmHg 44%
    12:00 +33°C° 0 mm 5 mps 757 mmHg 42%
    13:00 +34°C° 0 mm 6 mps 756 mmHg 40%
    14:00 +33°C° 0 mm 6 mps 756 mmHg 43%
    15:00 +33°C° 0 mm 6 mps 756 mmHg 45%
    16:00 +32°C° 0 mm 6 mps 756 mmHg 48%
    17:00 +29°C° 0 mm 6 mps 756 mmHg 55%
    18:00 +27°C° 0 mm 6 mps 757 mmHg 63%
    19:00 +26°C° 0 mm 5 mps 757 mmHg 70%
    20:00 +25°C° 0 mm 5 mps 757 mmHg 72%
    21:00 +23°C° 0 mm 5 mps 757 mmHg 74%
    22:00 +22°C° 0 mm 4 mps 758 mmHg 76%
    23:00 +22°C° 0 mm 4 mps 758 mmHg 76%

    Day after tomorrow, 19 July, Thursday

    Time Temperature Precipitation Wind Pressure Humidity
    00:00 +22°C° 0 mm 3 mps 758 mmHg 75%
    01:00 +21°C° 0 mm 3 mps 757 mmHg 75%
    02:00 +21°C° 0 mm 3 mps 757 mmHg 73%
    03:00 +21°C° 0 mm 2 mps 757 mmHg 72%
    04:00 +21°C° 0 mm 2 mps 757 mmHg 71%
    05:00 +24°C° 0 mm 2 mps 757 mmHg 65%
    06:00 +25°C° 0 mm 2 mps 757 mmHg 60%
    07:00 +27°C° 0 mm 2 mps 757 mmHg 54%
    08:00 +29°C° 0 mm 2 mps 757 mmHg 50%
    09:00 +30°C° 0 mm 2 mps 757 mmHg 46%
    10:00 +31°C° 0 mm 2 mps 757 mmHg 43%
    11:00 +33°C° 0 mm 3 mps 757 mmHg 42%
    12:00 +33°C° 0 mm 4 mps 757 mmHg 42%
    13:00 +34°C° 0 mm 5 mps 757 mmHg 41%
    14:00 +33°C° 0 mm 5 mps 757 mmHg 43%
    15:00 +33°C° 0 mm 5 mps 757 mmHg 45%
    16:00 +33°C° 0 mm 5 mps 756 mmHg 47%
    17:00 +30°C° 0 mm 4 mps 757 mmHg 54%
    18:00 +28°C° 0 mm 4 mps 757 mmHg 62%
    19:00 +26°C° 0 mm 3 mps 757 mmHg 70%
    20:00 +25°C° 0 mm 3 mps 757 mmHg 71%
    21:00 +24°C° 0 mm 3 mps 758 mmHg 73%
    22:00 +22°C° 0 mm 3 mps 758 mmHg 75%
    23:00 +22°C° 0 mm 3 mps 758 mmHg 73%

    20 July, Friday

    Time Temperature Precipitation Wind Pressure Humidity
    00:00 +22°C° 0 mm 3 mps 758 mmHg 72%
    01:00 +22°C° 0 mm 3 mps 758 mmHg 71%
    02:00 +21°C° 0 mm 3 mps 757 mmHg 70%
    03:00 +21°C° 0 mm 3 mps 757 mmHg 70%
    04:00 +21°C° 0 mm 2 mps 757 mmHg 69%
    05:00 +24°C° 0 mm 2 mps 757 mmHg 65%
    06:00 +26°C° 0 mm 2 mps 757 mmHg 61%
    07:00 +27°C° 0 mm 2 mps 758 mmHg 57%
    08:00 +29°C° 0 mm 2 mps 758 mmHg 53%
    09:00 +30°C° 0 mm 2 mps 758 mmHg 49%
    10:00 +33°C° 0 mm 3 mps 758 mmHg 45%
    11:00 +33°C° 0 mm 4 mps 758 mmHg 45%
    12:00 +34°C° 0 mm 4 mps 757 mmHg 45%
    13:00 +34°C° 0 mm 5 mps 757 mmHg 44%
    14:00 +34°C° 0 mm 5 mps 757 mmHg 46%
    15:00 +34°C° 0 mm 5 mps 757 mmHg 47%
    16:00 +33°C° 0 mm 5 mps 757 mmHg 49%
    17:00 +30°C° 0 mm 5 mps 757 mmHg 55%
    18:00 +28°C° 0 mm 4 mps 757 mmHg 62%
    19:00 +26°C° 0 mm 4 mps 757 mmHg 68%
    20:00 +26°C° 0 mm 3 mps 758 mmHg 69%
    21:00 +25°C° 0 mm 3 mps 758 mmHg 71%
    22:00 +24°C° 0 mm 2 mps 758 mmHg 72%
    23:00 +24°C° 0 mm 2 mps 758 mmHg 71%

    21 July, Saturday

    Time Temperature Precipitation Wind Pressure Humidity
    00:00 +24°C° 0 mm 2 mps 758 mmHg 71%
    01:00 +24°C° 0 mm 2 mps 758 mmHg 71%
    02:00 +24°C° 0 mm 2 mps 758 mmHg 71%
    03:00 +23°C° 0 mm 2 mps 758 mmHg 71%
    04:00 +23°C° 0 mm 2 mps 758 mmHg 71%
    05:00 +25°C° 0 mm 2 mps 758 mmHg 66%
    06:00 +27°C° 0 mm 2 mps 758 mmHg 61%
    07:00 +28°C° 0 mm 1 mps 758 mmHg 56%
    08:00 +30°C° 0 mm 1 mps 758 mmHg 51%
    09:00 +32°C° 0 mm 1 mps 758 mmHg 45%
    10:00 +33°C° 0 mm 1 mps 758 mmHg 39%
    11:00 +35°C° 0 mm 2 mps 758 mmHg 37%
    12:00 +35°C° 0 mm 2 mps 758 mmHg 35%
    13:00 +36°C° 0 mm 2 mps 757 mmHg 34%
    14:00 +36°C° 0 mm 2 mps 757 mmHg 34%
    15:00 +36°C° 0 mm 2 mps 757 mmHg 35%
    16:00 +36°C° 0 mm 2 mps 757 mmHg 36%
    17:00 +32°C° 0 mm 2 mps 757 mmHg 42%
    18:00 +30°C° 0 mm 2 mps 757 mmHg 48%
    19:00 +28°C° 0 mm 2 mps 757 mmHg 55%
    20:00 +27°C° 0 mm 2 mps 757 mmHg 55%
    21:00 +27°C° 0 mm 3 mps 757 mmHg 55%
    22:00 +26°C° 0 mm 3 mps 757 mmHg 55%
    23:00 +26°C° 0 mm 4 mps 756 mmHg 54%

    22 July, Sunday

    Time Temperature Precipitation Wind Pressure Humidity
    00:00 +26°C° 0 mm 4 mps 756 mmHg 53%
    01:00 +26°C° 0 mm 4 mps 756 mmHg 52%
    02:00 +25°C° 0 mm 4 mps 755 mmHg 51%
    03:00 +25°C° 0 mm 4 mps 755 mmHg 50%
    04:00 +25°C° 0 mm 4 mps 755 mmHg 49%
    05:00 +27°C° 0 mm 4 mps 755 mmHg 47%
    06:00 +28°C° 0 mm 4 mps 754 mmHg 45%
    07:00 +30°C° 0 mm 4 mps 754 mmHg 43%
    08:00 +33°C° 0 mm 5 mps 754 mmHg 39%
    09:00 +34°C° 0 mm 5 mps 754 mmHg 35%
    10:00 +36°C° 0 mm 6 mps 753 mmHg 31%
    11:00 +36°C° 0 mm 6 mps 753 mmHg 32%
    12:00 +36°C° 0 mm 6 mps 753 mmHg 34%
    13:00 +38°C° 0 mm 6 mps 752 mmHg 35%
    14:00 +36°C° 0 mm 5 mps 752 mmHg 36%
    15:00 +35°C° 0 mm 4 mps 752 mmHg 36%
    16:00 +35°C° 0 mm 3 mps 752 mmHg 36%
    17:00 +33°C° 0 mm 3 mps 752 mmHg 44%
    18:00 +30°C° 0 mm 2 mps 752 mmHg 52%
    19:00 +27°C° 0 mm 1 mps 752 mmHg 60%
    20:00 +27°C° 0 mm 2 mps 752 mmHg 62%
    21:00 +26°C° 0 mm 3 mps 752 mmHg 65%
    22:00 +25°C° 0 mm 3 mps 753 mmHg 67%
    23:00 +24°C° 0.2 mm 3 mps 753 mmHg 67%
    Show more